TimeCST,TemperatureF,Dew PointF,Humidity,Sea Level PressureIn,VisibilityMPH,Wind Direction,Wind SpeedMPH,Gust SpeedMPH,PrecipitationIn,Events,Conditions,WindDirDegrees,DateUTC
12:15 AM,73.6,67.5,81,29.80,10.0,South,16.1,27.6,N/A,,Mostly Cloudy,170,2013-02-10 06:15:00
12:35 AM,73.8,67.5,81,29.79,10.0,South,17.3,26.5,N/A,,Mostly Cloudy,170,2013-02-10 06:35:00
12:55 AM,74.1,67.5,80,29.79,10.0,South,16.1,24.2,N/A,,Overcast,170,2013-02-10 06:55:00
1:15 AM,73.8,67.1,80,29.78,10.0,SSE,18.4,24.2,N/A,,Overcast,160,2013-02-10 07:15:00
1:35 AM,73.6,67.3,81,29.78,7.0,SSE,16.1,23.0,N/A,,Mostly Cloudy,160,2013-02-10 07:35:00
1:55 AM,73.2,67.1,81,29.77,7.0,South,12.7,21.9,N/A,,Mostly Cloudy,170,2013-02-10 07:55:00
2:35 AM,73.4,67.1,81,29.77,7.0,South,15.0,23.0,N/A,,Overcast,170,2013-02-10 08:35:00
3:15 AM,73.4,67.3,81,29.77,7.0,South,13.8,19.6,N/A,,Overcast,180,2013-02-10 09:15:00
3:35 AM,73.8,67.1,80,29.77,7.0,South,13.8,19.6,N/A,,Overcast,190,2013-02-10 09:35:00
3:55 AM,73.4,66.7,80,29.77,7.0,SSW,11.5,16.1,N/A,,Overcast,200,2013-02-10 09:55:00
4:15 AM,73.4,66.6,79,29.77,7.0,SSW,11.5,19.6,N/A,,Overcast,200,2013-02-10 10:15:00
4:35 AM,73.0,66.4,80,29.78,7.0,SSW,8.1,-,N/A,,Overcast,200,2013-02-10 10:35:00
4:55 AM,72.5,66.2,81,29.78,7.0,SSW,8.1,-,N/A,,Mostly Cloudy,200,2013-02-10 10:55:00
5:15 AM,72.1,66.2,82,29.77,7.0,South,12.7,17.3,N/A,,Scattered Clouds,180,2013-02-10 11:15:00
5:35 AM,71.8,66.2,83,29.77,7.0,South,12.7,16.1,N/A,,Clear,190,2013-02-10 11:35:00
5:55 AM,71.6,66.0,82,29.77,7.0,South,11.5,-,N/A,,Clear,180,2013-02-10 11:55:00
6:15 AM,71.2,66.2,84,29.77,7.0,South,13.8,18.4,N/A,,Clear,180,2013-02-10 12:15:00
6:35 AM,71.4,66.0,83,29.78,7.0,South,13.8,-,N/A,,Clear,180,2013-02-10 12:35:00
6:55 AM,71.2,65.7,82,29.79,7.0,South,12.7,19.6,N/A,,Clear,180,2013-02-10 12:55:00
7:15 AM,71.6,65.7,81,29.79,7.0,South,12.7,-,N/A,,Clear,180,2013-02-10 13:15:00
7:35 AM,71.8,65.7,81,29.80,7.0,South,15.0,23.0,N/A,,Clear,180,2013-02-10 13:35:00
7:55 AM,73.0,65.8,78,29.80,7.0,South,18.4,27.6,N/A,,Clear,180,2013-02-10 13:55:00
8:15 AM,74.1,66.2,76,29.81,7.0,South,15.0,24.2,N/A,,Clear,180,2013-02-10 14:15:00
8:35 AM,75.2,66.2,73,29.82,7.0,South,13.8,26.5,N/A,,Clear,180,2013-02-10 14:35:00
8:55 AM,76.6,66.2,70,29.82,10.0,South,21.9,27.6,N/A,,Clear,190,2013-02-10 14:55:00
9:15 AM,78.1,66.0,66,29.83,10.0,South,21.9,28.8,N/A,,Clear,190,2013-02-10 15:15:00
9:35 AM,79.2,66.0,64,29.84,7.0,South,19.6,27.6,N/A,,Clear,190,2013-02-10 15:35:00
10:15 AM,82.6,65.5,56,29.84,7.0,South,20.7,28.8,N/A,,Clear,180,2013-02-10 16:15:00
10:35 AM,83.1,65.3,55,29.84,10.0,South,19.6,27.6,N/A,,Clear,180,2013-02-10 16:35:00
10:55 AM,85.1,65.1,51,29.83,10.0,South,19.6,26.5,N/A,,Clear,180,2013-02-10 16:55:00
11:15 AM,86.2,65.1,49,29.83,10.0,SSW,16.1,28.8,N/A,,Clear,200,2013-02-10 17:15:00
11:35 AM,87.4,64.9,47,29.82,7.0,SSW,17.3,27.6,N/A,,Clear,200,2013-02-10 17:35:00
11:55 AM,88.7,64.4,44,29.81,5.0,South,17.3,23.0,N/A,,Haze,180,2013-02-10 17:55:00
12:15 PM,89.4,63.5,42,29.80,7.0,South,15.0,25.3,N/A,,Clear,190,2013-02-10 18:15:00
12:35 PM,90.7,63.1,40,29.78,10.0,South,13.8,-,N/A,,Clear,190,2013-02-10 18:35:00
12:55 PM,91.9,63.3,38,29.78,7.0,South,12.7,19.6,N/A,,Clear,180,2013-02-10 18:55:00
1:15 PM,93.4,61.5,34,29.77,7.0,South,11.5,17.3,N/A,,Clear,180,2013-02-10 19:15:00
1:35 PM,94.3,60.4,32,29.76,7.0,SSW,9.2,17.3,N/A,,Clear,210,2013-02-10 19:35:00
1:55 PM,94.6,60.1,31,29.75,10.0,SSE,6.9,-,N/A,,Clear,160,2013-02-10 19:55:00
2:15 PM,94.5,59.4,31,29.74,7.0,SSE,5.8,-,N/A,,Clear,160,2013-02-10 20:15:00
2:35 PM,93.6,65.8,40,29.73,7.0,SSE,15.0,18.4,N/A,,Clear,160,2013-02-10 20:35:00
2:55 PM,91.0,65.8,43,29.72,7.0,SSE,13.8,19.6,N/A,,Clear,150,2013-02-10 20:55:00
3:15 PM,90.5,66.2,45,29.72,7.0,SSE,15.0,18.4,N/A,,Clear,150,2013-02-10 21:15:00
3:55 PM,87.8,65.8,48,29.72,7.0,SSE,12.7,-,N/A,,Clear,160,2013-02-10 21:55:00
4:15 PM,88.9,65.5,46,29.72,10.0,SE,10.4,-,N/A,,Clear,140,2013-02-10 22:15:00
4:35 PM,88.2,66.2,48,29.72,10.0,SE,12.7,18.4,N/A,,Clear,130,2013-02-10 22:35:00
4:55 PM,86.7,66.9,52,29.72,7.0,SE,16.1,-,N/A,,Clear,130,2013-02-10 22:55:00
5:15 PM,85.5,66.4,53,29.73,7.0,SE,12.7,17.3,N/A,,Clear,140,2013-02-10 23:15:00
5:35 PM,84.0,66.2,55,29.73,10.0,SE,11.5,17.3,N/A,,Clear,140,2013-02-10 23:35:00
5:55 PM,82.4,67.1,60,29.73,10.0,SE,15.0,19.6,N/A,,Clear,140,2013-02-10 23:55:00
6:15 PM,80.8,67.1,63,29.73,10.0,SE,11.5,19.6,N/A,,Clear,130,2013-02-11 00:15:00
6:35 PM,79.7,67.1,65,29.74,10.0,SE,15.0,21.9,N/A,,Clear,140,2013-02-11 00:35:00
6:55 PM,78.8,67.1,67,29.76,10.0,SE,11.5,18.4,N/A,,Clear,140,2013-02-11 00:55:00
7:15 PM,77.9,67.3,70,29.77,10.0,SE,13.8,17.3,N/A,,Clear,130,2013-02-11 01:15:00
7:35 PM,76.8,67.5,73,29.78,7.0,SSE,11.5,21.9,N/A,,Clear,160,2013-02-11 01:35:00
7:55 PM,76.1,68.0,76,29.79,7.0,SE,8.1,-,N/A,,Clear,140,2013-02-11 01:55:00
8:15 PM,75.4,67.8,77,29.80,7.0,SE,9.2,-,N/A,,Mostly Cloudy,140,2013-02-11 02:15:00
8:35 PM,75.2,68.0,78,29.81,7.0,SE,4.6,-,N/A,,Overcast,140,2013-02-11 02:35:00
8:55 PM,75.2,68.0,78,29.83,7.0,SSE,3.5,-,N/A,,Overcast,150,2013-02-11 02:55:00
9:15 PM,75.2,68.0,78,29.83,7.0,SE,3.5,-,N/A,,Overcast,130,2013-02-11 03:15:00
9:35 PM,75.2,68.0,78,29.84,7.0,Calm,Calm,-,N/A,,Overcast,0,2013-02-11 03:35:00
9:55 PM,75.2,68.0,78,29.85,10.0,ENE,3.5,-,N/A,,Overcast,60,2013-02-11 03:55:00
10:15 PM,75.0,68.0,79,29.86,10.0,ENE,3.5,-,N/A,,Overcast,60,2013-02-11 04:15:00
10:35 PM,75.2,68.0,78,29.86,10.0,ENE,3.5,-,N/A,,Overcast,60,2013-02-11 04:35:00
10:55 PM,74.8,68.0,79,29.86,10.0,Calm,Calm,-,N/A,,Overcast,0,2013-02-11 04:55:00
11:15 PM,74.7,68.0,80,29.87,10.0,NE,3.5,-,N/A,,Overcast,50,2013-02-11 05:15:00
11:35 PM,74.7,68.0,80,29.87,10.0,ENE,3.5,-,N/A,,Overcast,70,2013-02-11 05:35:00
11:55 PM,71.8,63.5,75,29.88,7.0,North,8.1,-,N/A,,Overcast,350,2013-02-11 05:55:00